,,PA_Meas_PMT16A,,PR_Meas_QMR101_102,,RH_Meas_QMH101,,SR_Meas_QMS101,,TA_Meas_QMH101,,GenWind,,GenWind,
time,status,PA,status,PR,status,RH,status,SR,status,TA,status,DirAvg,status,SpdAvg,
2011-08-22, 00:00:04,VALID,918.192,VALID,0,VALID,95.3994,VALID,0,VALID,20.8324,VALID,314,VALID,0.411719,
2011-08-22, 00:01:04,VALID,918.229,VALID,0,VALID,95.5214,VALID,0,VALID,20.8129,VALID,314,VALID,0.325,
2011-08-22, 00:02:04,VALID,918.199,VALID,0,VALID,95.6205,VALID,0,VALID,20.7934,VALID,314,VALID,0.746094,
2011-08-22, 00:03:04,VALID,918.198,VALID,0,VALID,95.712,VALID,0,VALID,20.7934,VALID,314,VALID,0.835547,
2011-08-22, 00:04:04,VALID,918.161,VALID,0,VALID,95.7958,VALID,0,VALID,20.7739,VALID,314,VALID,0.532422,
2011-08-22, 00:05:04,VALID,918.219,VALID,0,VALID,95.8645,VALID,0,VALID,20.7755,VALID,314,VALID,0.546094,
2011-08-22, 00:06:04,VALID,918.152,VALID,0,VALID,95.9483,VALID,0,VALID,20.7544,VALID,314,VALID,1.06992,
2011-08-22, 00:07:04,VALID,918.19,VALID,0,VALID,96.0093,VALID,0,VALID,20.7544,VALID,314,VALID,0.455078,
2011-08-22, 00:08:04,VALID,918.156,VALID,0,VALID,96.0779,VALID,0,VALID,20.7739,VALID,314,VALID,0.687891,
2011-08-22, 00:09:04,VALID,918.153,VALID,0,VALID,96.0779,VALID,0,VALID,20.7544,VALID,314,VALID,0.986328,
2011-08-22, 00:10:04,VALID,918.122,VALID,0,VALID,96.1008,VALID,0,VALID,20.7154,VALID,314,VALID,0.629297,
2011-08-22, 00:11:04,VALID,918.113,VALID,0,VALID,96.116,VALID,0,VALID,20.7154,VALID,314,VALID,0.403516,
2011-08-22, 00:12:04,VALID,918.13,VALID,0,VALID,96.1465,VALID,0,VALID,20.7349,VALID,314,VALID,0.497656,
2011-08-22, 00:13:04,VALID,918.075,VALID,0,VALID,96.177,VALID,0,VALID,20.7154,VALID,314,VALID,0.755469,
2011-08-22, 00:14:04,VALID,918.052,VALID,0,VALID,96.177,VALID,0,VALID,20.7154,VALID,314,VALID,0.708203,
2011-08-22, 00:15:04,VALID,918.016,VALID,0,VALID,96.1923,VALID,0,VALID,20.7154,VALID,314,VALID,0.341406,
2011-08-22, 00:16:04,VALID,918.022,VALID,0,VALID,96.2228,VALID,0,VALID,20.7349,VALID,314,VALID,0.442969,
2011-08-22, 00:17:04,VALID,918.005,VALID,0,VALID,96.2609,VALID,0,VALID,20.7349,VALID,314,VALID,0.363281,
2011-08-22, 00:18:04,VALID,917.976,VALID,0,VALID,96.1236,VALID,0,VALID,20.7154,VALID,314,VALID,0.596484,
2011-08-22, 00:19:04,VALID,917.955,VALID,0,VALID,96.1465,VALID,0,VALID,20.6764,VALID,314,VALID,0.745313,
2011-08-22, 00:20:04,VALID,917.93,VALID,0,VALID,96.1465,VALID,0,VALID,20.6374,VALID,314,VALID,0.973047,
2011-08-22, 00:21:04,VALID,917.933,VALID,0,VALID,96.1313,VALID,0,VALID,20.6374,VALID,314,VALID,0.862109,
2011-08-22, 00:22:04,VALID,917.929,VALID,0,VALID,96.1313,VALID,0,VALID,20.6179,VALID,314,VALID,0.784375,
2011-08-22, 00:23:04,VALID,917.923,VALID,0,VALID,96.1236,VALID,0,VALID,20.5984,VALID,314,VALID,0.931641,
2011-08-22, 00:24:04,VALID,917.921,VALID,0,VALID,96.116,VALID,0,VALID,20.5804,VALID,314,VALID,1.02461,
2011-08-22, 00:25:04,VALID,917.921,VALID,0,VALID,96.1999,VALID,0,VALID,20.5594,VALID,314,VALID,0.792188,
2011-08-22, 00:26:04,VALID,917.874,VALID,0,VALID,96.2304,VALID,0,VALID,20.5399,VALID,314,VALID,0.697266,
2011-08-22, 00:27:04,VALID,917.86,VALID,0,VALID,96.2304,VALID,0,VALID,20.5399,VALID,314,VALID,1.04062,
2011-08-22, 00:28:04,VALID,917.831,VALID,0,VALID,96.2837,VALID,0,VALID,20.5399,VALID,314,VALID,0.857031,
2011-08-22, 00:29:04,VALID,917.821,VALID,0,VALID,96.3142,VALID,0,VALID,20.5414,VALID,314,VALID,0.840234,
2011-08-22, 00:30:04,VALID,917.859,VALID,0,VALID,96.3829,VALID,0,VALID,20.5399,VALID,314,VALID,0.444922,
2011-08-22, 00:31:04,VALID,917.803,VALID,0,VALID,96.4286,VALID,0,VALID,20.5399,VALID,314,VALID,0.316797,
2011-08-22, 00:32:04,VALID,917.813,VALID,0,VALID,96.4591,VALID,0,VALID,20.5594,VALID,314,VALID,0.114063,
2011-08-22, 00:33:04,VALID,917.833,VALID,0,VALID,96.4667,VALID,0,VALID,20.5594,VALID,314,VALID,0.294531,
2011-08-22, 00:34:04,VALID,917.823,VALID,0,VALID,96.4057,VALID,0,VALID,20.5399,VALID,314,VALID,0.378125,
2011-08-22, 00:35:04,VALID,917.811,VALID,0,VALID,96.4286,VALID,0,VALID,20.5204,VALID,314,VALID,0.613672,
2011-08-22, 00:36:04,VALID,917.793,VALID,0,VALID,96.4286,VALID,0,VALID,20.5009,VALID,314,VALID,0.416406,
2011-08-22, 00:37:04,VALID,917.765,VALID,0,VALID,96.4591,VALID,0,VALID,20.5414,VALID,314,VALID,0.421484,
2011-08-22, 00:38:04,VALID,917.754,VALID,0,VALID,96.5048,VALID,0,VALID,20.5204,VALID,314,VALID,0.408594,
2011-08-22, 00:39:04,VALID,917.749,VALID,0,VALID,96.5277,VALID,0,VALID,20.5204,VALID,314,VALID,0.338672,
2011-08-22, 00:40:04,VALID,917.735,VALID,0,VALID,96.5353,VALID,0,VALID,20.5204,VALID,314,VALID,0.461719,
2011-08-22, 00:41:04,VALID,917.706,VALID,0,VALID,96.5429,VALID,0,VALID,20.5204,VALID,314,VALID,0.181641,
2011-08-22, 00:42:04,VALID,917.688,VALID,0,VALID,96.5658,VALID,0,VALID,20.5204,VALID,314,VALID,0,
2011-08-22, 00:43:04,VALID,917.642,VALID,0,VALID,96.5887,VALID,0,VALID,20.5399,VALID,314,VALID,0.0828125,
2011-08-22, 00:44:04,VALID,917.647,VALID,0,VALID,96.5506,VALID,0,VALID,20.5204,VALID,314,VALID,0.594922,
2011-08-22, 00:45:04,VALID,917.598,VALID,0,VALID,96.5277,VALID,0,VALID,20.4813,VALID,314,VALID,0.584766,
2011-08-22, 00:46:04,VALID,917.576,VALID,0,VALID,96.5429,VALID,0,VALID,20.4813,VALID,314,VALID,0.567969,
2011-08-22, 00:47:04,VALID,917.574,VALID,0,VALID,96.5887,VALID,0,VALID,20.4813,VALID,314,VALID,0.441406,
2011-08-22, 00:48:04,VALID,917.533,VALID,0,VALID,96.5963,VALID,0,VALID,20.4618,VALID,314,VALID,0.463281,
2011-08-22, 00:49:04,VALID,917.503,VALID,0,VALID,96.6039,VALID,0,VALID,20.4813,VALID,314,VALID,0.36875,
2011-08-22, 00:50:04,VALID,917.509,VALID,0,VALID,96.6115,VALID,0,VALID,20.4618,VALID,314,VALID,0.548828,
2011-08-22, 00:51:04,VALID,917.525,VALID,0,VALID,96.4896,VALID,0,VALID,20.4033,VALID,314,VALID,1.16641,
2011-08-22, 00:52:04,VALID,917.513,VALID,0,VALID,96.5124,VALID,0,VALID,20.3854,VALID,314,VALID,1.03633,
2011-08-22, 00:53:04,VALID,917.528,VALID,0,VALID,96.4819,VALID,0,VALID,20.3253,VALID,314,VALID,0.875391,
2011-08-22, 00:54:04,VALID,917.514,VALID,0,VALID,96.5429,VALID,0,VALID,20.2879,VALID,314,VALID,0.69375,
2011-08-22, 00:55:04,VALID,917.499,VALID,0,VALID,96.5887,VALID,0,VALID,20.2668,VALID,314,VALID,0.455859,
2011-08-22, 00:56:04,VALID,917.505,VALID,0,VALID,96.6115,VALID,0,VALID,20.2879,VALID,314,VALID,0.616406,
2011-08-22, 00:57:04,VALID,917.476,VALID,0,VALID,96.5811,VALID,0,VALID,20.2473,VALID,314,VALID,0.738281,
2011-08-22, 00:58:04,VALID,917.478,VALID,0,VALID,96.6649,VALID,0,VALID,20.2668,VALID,314,VALID,0.648438,
2011-08-22, 00:59:04,VALID,917.481,VALID,0,VALID,96.7183,VALID,0,VALID,20.2668,VALID,314,VALID,0.692578,
2011-08-22, 01:00:04,VALID,917.487,VALID,0,VALID,96.7564,VALID,0,VALID,20.2668,VALID,314,VALID,0.870703,
2011-08-22, 01:01:04,VALID,917.444,VALID,0,VALID,96.8098,VALID,0,VALID,20.3058,VALID,314,VALID,0.904688,
2011-08-22, 01:02:04,VALID,917.461,VALID,0,VALID,96.8403,VALID,0,VALID,20.3448,VALID,314,VALID,0.574219,
2011-08-22, 01:03:04,VALID,917.46,VALID,0,VALID,96.8326,VALID,0,VALID,20.3643,VALID,314,VALID,0.542969,
2011-08-22, 01:04:04,VALID,917.446,VALID,0,VALID,96.8479,VALID,0,VALID,20.4244,VALID,314,VALID,0.463281,
2011-08-22, 01:05:04,VALID,917.459,VALID,0,VALID,96.8479,VALID,0,VALID,20.4228,VALID,314,VALID,0.470313,
2011-08-22, 01:06:04,VALID,917.441,VALID,0,VALID,96.8555,VALID,0,VALID,20.4423,VALID,314,VALID,0.71875,
2011-08-22, 01:07:04,VALID,917.452,VALID,0,VALID,96.8098,VALID,0,VALID,20.4439,VALID,314,VALID,0.769922,
2011-08-22, 01:08:04,VALID,917.417,VALID,0,VALID,96.7793,VALID,0,VALID,20.4228,VALID,314,VALID,1.17617,
2011-08-22, 01:09:04,VALID,917.397,VALID,0,VALID,96.7945,VALID,0,VALID,20.4033,VALID,314,VALID,1.10938,
2011-08-22, 01:10:04,VALID,917.403,VALID,0,VALID,96.825,VALID,0,VALID,20.4228,VALID,314,VALID,0.55,
2011-08-22, 01:11:04,VALID,917.374,VALID,0,VALID,96.8784,VALID,0,VALID,20.4634,VALID,314,VALID,0.637891,
2011-08-22, 01:12:04,VALID,917.368,VALID,0,VALID,96.7945,VALID,0,VALID,20.4423,VALID,314,VALID,0.7375,
2011-08-22, 01:13:04,VALID,917.363,VALID,0,VALID,96.7945,VALID,0,VALID,20.4228,VALID,314,VALID,0.0742188,
2011-08-22, 01:14:04,VALID,917.388,VALID,0,VALID,96.8326,VALID,0,VALID,20.4228,VALID,314,VALID,0,
2011-08-22, 01:15:04,VALID,917.392,VALID,0,VALID,96.8555,VALID,0,VALID,20.4423,VALID,314,VALID,0,
2011-08-22, 01:16:04,VALID,917.425,VALID,0,VALID,96.8631,VALID,0,VALID,20.4618,VALID,314,VALID,0.199609,
2011-08-22, 01:17:04,VALID,917.417,VALID,0,VALID,96.8403,VALID,0,VALID,20.4423,VALID,314,VALID,0.183984,
2011-08-22, 01:18:04,VALID,917.439,VALID,0,VALID,96.8479,VALID,0,VALID,20.4618,VALID,314,VALID,0.367969,
2011-08-22, 01:19:04,VALID,917.439,VALID,0,VALID,96.8784,VALID,0,VALID,20.5024,VALID,314,VALID,0.517578,
2011-08-22, 01:20:04,VALID,917.453,VALID,0,VALID,96.8555,VALID,0,VALID,20.4813,VALID,314,VALID,0.36875,
2011-08-22, 01:21:04,VALID,917.449,VALID,0,VALID,96.8555,VALID,0,VALID,20.5009,VALID,314,VALID,0.594141,
2011-08-22, 01:22:04,VALID,917.443,VALID,0,VALID,96.8631,VALID,0,VALID,20.5009,VALID,314,VALID,0.508203,
2011-08-22, 01:23:04,VALID,917.424,VALID,0,VALID,96.825,VALID,0,VALID,20.5009,VALID,314,VALID,0.476563,
2011-08-22, 01:24:04,VALID,917.452,VALID,0,VALID,96.8098,VALID,0,VALID,20.5009,VALID,314,VALID,0.429688,
2011-08-22, 01:25:04,VALID,917.436,VALID,0,VALID,96.8098,VALID,0,VALID,20.5009,VALID,314,VALID,0.0890625,
2011-08-22, 01:26:04,VALID,917.452,VALID,0,VALID,96.8021,VALID,0,VALID,20.5219,VALID,314,VALID,0.491406,
2011-08-22, 01:27:04,VALID,917.455,VALID,0,VALID,96.8021,VALID,0.107441,VALID,20.5399,VALID,314,VALID,0.169141,
2011-08-22, 01:28:04,VALID,917.459,VALID,0,VALID,96.8098,VALID,0,VALID,20.5204,VALID,314,VALID,0.439063,
2011-08-22, 01:29:04,VALID,917.45,VALID,0,VALID,96.7488,VALID,0,VALID,20.5009,VALID,314,VALID,0.504297,
2011-08-22, 01:30:04,VALID,917.511,VALID,0,VALID,96.7335,VALID,0,VALID,20.5219,VALID,314,VALID,0.208594,
2011-08-22, 01:31:04,VALID,917.487,VALID,0,VALID,96.7488,VALID,0,VALID,20.5414,VALID,314,VALID,0.221875,
2011-08-22, 01:32:04,VALID,917.442,VALID,0,VALID,96.7259,VALID,0,VALID,20.5204,VALID,314,VALID,0.0265625,
2011-08-22, 01:33:04,VALID,917.439,VALID,0,VALID,96.7107,VALID,0,VALID,20.5399,VALID,314,VALID,0,
2011-08-22, 01:34:04,VALID,917.453,VALID,0,VALID,96.6954,VALID,0,VALID,20.5609,VALID,314,VALID,0,
2011-08-22, 01:35:04,VALID,917.428,VALID,0,VALID,96.6725,VALID,0,VALID,20.5789,VALID,314,VALID,0.328516,
2011-08-22, 01:36:04,VALID,917.404,VALID,0,VALID,96.6344,VALID,0,VALID,20.5804,VALID,314,VALID,0.104687,
2011-08-22, 01:37:04,VALID,917.399,VALID,0,VALID,96.6192,VALID,0,VALID,20.5804,VALID,314,VALID,0,
2011-08-22, 01:38:04,VALID,917.366,VALID,0,VALID,96.4972,VALID,0,VALID,20.5399,VALID,314,VALID,0.348437,
2011-08-22, 01:39:04,VALID,917.36,VALID,0,VALID,96.4438,VALID,0,VALID,20.5609,VALID,314,VALID,0.470313,
2011-08-22, 01:40:04,VALID,917.313,VALID,0,VALID,96.421,VALID,0,VALID,20.5009,VALID,314,VALID,0.528516,
2011-08-22, 01:41:04,VALID,917.314,VALID,0,VALID,96.3752,VALID,0,VALID,20.4813,VALID,314,VALID,0.485156,
2011-08-22, 01:42:04,VALID,917.281,VALID,0,VALID,96.3981,VALID,0,VALID,20.4813,VALID,314,VALID,0.324609,
2011-08-22, 01:43:04,VALID,917.261,VALID,0,VALID,96.4133,VALID,0,VALID,20.4618,VALID,314,VALID,0.314063,
2011-08-22, 01:44:04,VALID,917.234,VALID,0,VALID,96.36,VALID,0,VALID,20.4618,VALID,314,VALID,0.338672,
2011-08-22, 01:45:04,VALID,917.221,VALID,0,VALID,96.3524,VALID,0,VALID,20.4423,VALID,314,VALID,0.25,
2011-08-22, 01:46:04,VALID,917.204,VALID,0,VALID,96.3447,VALID,0,VALID,20.4228,VALID,314,VALID,0.286719,
2011-08-22, 01:47:04,VALID,917.216,VALID,0,VALID,96.3447,VALID,0,VALID,20.4228,VALID,314,VALID,0.251563,
2011-08-22, 01:48:04,VALID,917.211,VALID,0,VALID,96.3447,VALID,0,VALID,20.4228,VALID,314,VALID,1.02539,
2011-08-22, 01:49:04,VALID,917.193,VALID,0,VALID,96.299,VALID,0,VALID,20.4033,VALID,314,VALID,0.801562,
2011-08-22, 01:50:04,VALID,917.174,VALID,0,VALID,96.2837,VALID,0,VALID,20.3838,VALID,314,VALID,0.657812,
2011-08-22, 01:51:04,VALID,917.131,VALID,0,VALID,96.3371,VALID,0,VALID,20.3838,VALID,314,VALID,0.426172,
2011-08-22, 01:52:04,VALID,917.127,VALID,0,VALID,96.3447,VALID,0,VALID,20.3838,VALID,314,VALID,0.519141,
2011-08-22, 01:53:04,VALID,917.112,VALID,0,VALID,96.3066,VALID,0,VALID,20.3643,VALID,314,VALID,0.822656,
2011-08-22, 01:54:04,VALID,917.104,VALID,0,VALID,96.3142,VALID,0,VALID,20.3854,VALID,314,VALID,0.972266,
2011-08-22, 01:55:04,VALID,917.099,VALID,0,VALID,96.3447,VALID,0,VALID,20.3448,VALID,314,VALID,0.442578,
2011-08-22, 01:56:04,VALID,917.099,VALID,0,VALID,96.3447,VALID,0,VALID,20.3448,VALID,314,VALID,0.442578,
2011-08-22, 01:57:04,VALID,917.078,VALID,0,VALID,96.3524,VALID,0,VALID,20.3464,VALID,314,VALID,0.578125,
2011-08-22, 01:58:04,VALID,917.106,VALID,0,VALID,96.3524,VALID,0,VALID,20.3058,VALID,314,VALID,0.427344,
2011-08-22, 01:59:04,VALID,917.095,VALID,0,VALID,96.3752,VALID,0,VALID,20.3253,VALID,315,VALID,0.453125,
2011-08-22, 02:00:04,VALID,917.074,VALID,0,VALID,96.3752,VALID,0,VALID,20.3253,VALID,315,VALID,0.376953,
2011-08-22, 02:01:04,VALID,917.102,VALID,0,VALID,96.3066,VALID,0,VALID,20.2668,VALID,315,VALID,0.669922,
2011-08-22, 02:02:04,VALID,917.078,VALID,0,VALID,96.3524,VALID,0,VALID,20.2863,VALID,315,VALID,0.598828,
2011-08-22, 02:03:04,VALID,917.074,VALID,0,VALID,96.3524,VALID,0,VALID,20.2863,VALID,315,VALID,0.628516,
2011-08-22, 02:04:04,VALID,917.077,VALID,0,VALID,96.299,VALID,0,VALID,20.2879,VALID,316,VALID,0.694141,
2011-08-22, 02:05:04,VALID,917.044,VALID,0,VALID,96.3066,VALID,0,VALID,20.2879,VALID,316,VALID,0.678906,
2011-08-22, 02:06:04,VALID,917.038,VALID,0,VALID,96.3066,VALID,0,VALID,20.2863,VALID,316,VALID,0.671875,
2011-08-22, 02:07:04,VALID,917.006,VALID,0,VALID,96.2837,VALID,0,VALID,20.2668,VALID,316,VALID,1.03867,
2011-08-22, 02:08:04,VALID,916.982,VALID,0,VALID,96.3066,VALID,0,VALID,20.3074,VALID,316,VALID,0.917578,
2011-08-22, 02:09:04,VALID,916.97,VALID,0,VALID,96.2533,VALID,0,VALID,20.2473,VALID,143,VALID,0.776172,
2011-08-22, 02:10:04,VALID,916.935,VALID,0,VALID,96.2075,VALID,0,VALID,20.2278,VALID,143,VALID,1.01328,
2011-08-22, 02:11:04,VALID,916.966,VALID,0,VALID,96.2304,VALID,0,VALID,20.1888,VALID,143,VALID,1.19648,
2011-08-22, 02:12:04,VALID,916.97,VALID,0,VALID,96.238,VALID,0,VALID,20.1888,VALID,143,VALID,0.789063,
2011-08-22, 02:13:04,VALID,916.96,VALID,0,VALID,96.2685,VALID,0,VALID,20.1903,VALID,143,VALID,0.655078,
2011-08-22, 02:14:04,VALID,916.977,VALID,0,VALID,96.2456,VALID,0,VALID,20.1708,VALID,143,VALID,0.659766,
2011-08-22, 02:15:04,VALID,916.946,VALID,0,VALID,96.1923,VALID,0,VALID,20.1123,VALID,132,VALID,0.825,
2011-08-22, 02:16:04,VALID,916.952,VALID,0,VALID,96.2151,VALID,0,VALID,20.0913,VALID,132,VALID,0.501562,
2011-08-22, 02:17:04,VALID,916.929,VALID,0,VALID,96.1923,VALID,0,VALID,20.0718,VALID,155,VALID,0.475391,
2011-08-22, 02:18:04,VALID,916.9,VALID,0,VALID,96.1846,VALID,0,VALID,20.0733,VALID,155,VALID,0.326953,
2011-08-22, 02:19:04,VALID,916.905,VALID,0,VALID,96.1694,VALID,0,VALID,20.0328,VALID,155,VALID,0.496484,
2011-08-22, 02:20:04,VALID,916.883,VALID,0,VALID,96.1084,VALID,0,VALID,19.9923,VALID,155,VALID,0.564453,
2011-08-22, 02:21:04,VALID,916.859,VALID,0,VALID,96.0855,VALID,0,VALID,19.9938,VALID,155,VALID,0.397266,
2011-08-22, 02:22:04,VALID,916.868,VALID,0,VALID,96.0474,VALID,0,VALID,19.9743,VALID,155,VALID,0.526563,
2011-08-22, 02:23:04,VALID,916.851,VALID,0,VALID,96.0169,VALID,0,VALID,19.9548,VALID,152,VALID,0.355078,
2011-08-22, 02:24:04,VALID,916.835,VALID,0,VALID,95.9407,VALID,0,VALID,19.9158,VALID,151,VALID,0.690625,
2011-08-22, 02:25:04,VALID,916.84,VALID,0,VALID,95.9026,VALID,0,VALID,19.8963,VALID,149,VALID,0.501562,
2011-08-22, 02:26:04,VALID,916.827,VALID,0,VALID,95.9102,VALID,0,VALID,19.8768,VALID,149,VALID,0.275781,
2011-08-22, 02:27:04,VALID,916.792,VALID,0,VALID,95.8416,VALID,0,VALID,19.8588,VALID,149,VALID,0.408984,
2011-08-22, 02:28:04,VALID,916.827,VALID,0,VALID,95.8263,VALID,0,VALID,19.8183,VALID,149,VALID,0.590234,
2011-08-22, 02:29:04,VALID,916.796,VALID,0,VALID,95.8263,VALID,0,VALID,19.7793,VALID,149,VALID,0.530469,
2011-08-22, 02:30:04,VALID,916.787,VALID,0,VALID,95.773,VALID,0,VALID,19.7403,VALID,149,VALID,0.599219,
2011-08-22, 02:31:04,VALID,916.763,VALID,0,VALID,95.8035,VALID,0,VALID,19.7013,VALID,148,VALID,0.826953,
2011-08-22, 02:32:04,VALID,916.774,VALID,0,VALID,95.8035,VALID,0,VALID,19.6833,VALID,148,VALID,0.635938,
2011-08-22, 02:33:04,VALID,916.754,VALID,0,VALID,95.8797,VALID,0,VALID,19.6623,VALID,145,VALID,0.714453,
2011-08-22, 02:34:04,VALID,916.79,VALID,0,VALID,95.8645,VALID,0,VALID,19.6233,VALID,145,VALID,0.565625,
2011-08-22, 02:35:04,VALID,916.759,VALID,0,VALID,95.8645,VALID,0,VALID,19.6038,VALID,145,VALID,0.907812,
2011-08-22, 02:36:04,VALID,916.77,VALID,0,VALID,95.8797,VALID,0,VALID,19.5843,VALID,145,VALID,0.971875,
2011-08-22, 02:37:04,VALID,916.809,VALID,0,VALID,95.9254,VALID,0,VALID,19.6038,VALID,145,VALID,0.980859,
2011-08-22, 02:38:04,VALID,916.789,VALID,0,VALID,95.9712,VALID,0,VALID,19.6248,VALID,145,VALID,0.651563,
2011-08-22, 02:39:04,VALID,916.82,VALID,0,VALID,96.055,VALID,0,VALID,19.6443,VALID,145,VALID,0.741016,
2011-08-22, 02:40:04,VALID,916.848,VALID,0,VALID,96.0627,VALID,0,VALID,19.6443,VALID,145,VALID,0.782422,
2011-08-22, 02:41:04,VALID,916.813,VALID,0,VALID,96.0703,VALID,0,VALID,19.6233,VALID,145,VALID,0.370313,
2011-08-22, 02:42:04,VALID,916.817,VALID,0,VALID,96.0627,VALID,0,VALID,19.6233,VALID,145,VALID,0.598047,
2011-08-22, 02:43:04,VALID,916.833,VALID,0,VALID,96.0017,VALID,0,VALID,19.5843,VALID,145,VALID,0.342578,
2011-08-22, 02:44:04,VALID,916.806,VALID,0,VALID,95.9102,VALID,0,VALID,19.5273,VALID,145,VALID,0.403516,
2011-08-22, 02:45:04,VALID,916.832,VALID,0,VALID,95.9026,VALID,0,VALID,19.4883,VALID,145,VALID,0.388281,
2011-08-22, 02:46:04,VALID,916.808,VALID,0,VALID,95.8797,VALID,0,VALID,19.4493,VALID,145,VALID,0.353125,
2011-08-22, 02:47:04,VALID,916.788,VALID,0,VALID,95.9559,VALID,0,VALID,19.4298,VALID,145,VALID,0.494531,
2011-08-22, 02:48:04,VALID,916.778,VALID,0,VALID,95.9941,VALID,0,VALID,19.4298,VALID,145,VALID,0.362891,
2011-08-22, 02:49:04,VALID,916.768,VALID,0,VALID,96.0703,VALID,0,VALID,19.4103,VALID,145,VALID,0.430469,
2011-08-22, 02:50:04,VALID,916.766,VALID,0,VALID,96.1008,VALID,0,VALID,19.3908,VALID,145,VALID,0.319141,
2011-08-22, 02:51:04,VALID,916.745,VALID,0,VALID,96.1694,VALID,0,VALID,19.3713,VALID,145,VALID,0.480469,
2011-08-22, 02:52:04,VALID,916.741,VALID,0,VALID,96.2533,VALID,0,VALID,19.3908,VALID,145,VALID,0.325,
2011-08-22, 02:53:04,VALID,916.72,VALID,0,VALID,96.2837,VALID,0,VALID,19.3518,VALID,145,VALID,0.333203,
2011-08-22, 02:54:04,VALID,916.705,VALID,0,VALID,96.3219,VALID,0,VALID,19.3713,VALID,145,VALID,0.504297,
2011-08-22, 02:55:04,VALID,916.71,VALID,0,VALID,96.3524,VALID,0,VALID,19.3323,VALID,145,VALID,0.479688,
2011-08-22, 02:56:04,VALID,916.692,VALID,0,VALID,96.4362,VALID,0,VALID,19.3323,VALID,145,VALID,0.386328,
2011-08-22, 02:57:04,VALID,916.705,VALID,0,VALID,96.4438,VALID,0,VALID,19.3323,VALID,145,VALID,0.341797,
2011-08-22, 02:58:04,VALID,916.726,VALID,0,VALID,96.4896,VALID,0,VALID,19.3518,VALID,145,VALID,0.497656,
2011-08-22, 02:59:04,VALID,916.721,VALID,0,VALID,96.5506,VALID,0,VALID,19.3518,VALID,145,VALID,0.308984,
2011-08-22, 03:00:04,VALID,916.705,VALID,0,VALID,96.5429,VALID,0,VALID,19.3518,VALID,145,VALID,0.150781,
2011-08-22, 03:01:04,VALID,916.739,VALID,0,VALID,96.5811,VALID,0,VALID,19.3713,VALID,145,VALID,0.00117188,
2011-08-22, 03:02:04,VALID,916.73,VALID,0,VALID,96.5963,VALID,0,VALID,19.3518,VALID,145,VALID,0.00585938,
2011-08-22, 03:03:04,VALID,916.7,VALID,0,VALID,96.5201,VALID,0,VALID,19.3128,VALID,145,VALID,0,
2011-08-22, 03:04:04,VALID,916.706,VALID,0,VALID,96.4667,VALID,0,VALID,19.2543,VALID,145,VALID,0,
2011-08-22, 03:05:04,VALID,916.715,VALID,0,VALID,96.5277,VALID,0,VALID,19.2153,VALID,145,VALID,0.141406,
2011-08-22, 03:06:04,VALID,916.72,VALID,0,VALID,96.5506,VALID,0,VALID,19.2153,VALID,145,VALID,0.494141,
2011-08-22, 03:07:04,VALID,916.699,VALID,0,VALID,96.5429,VALID,0,VALID,19.1973,VALID,145,VALID,0.466016,
2011-08-22, 03:08:04,VALID,916.729,VALID,0,VALID,96.5963,VALID,0,VALID,19.1958,VALID,145,VALID,0.511719,
2011-08-22, 03:09:04,VALID,916.761,VALID,0,VALID,96.6649,VALID,0,VALID,19.1958,VALID,145,VALID,0.588672,
2011-08-22, 03:10:04,VALID,916.773,VALID,0,VALID,96.7488,VALID,0,VALID,19.2348,VALID,135,VALID,0.739453,
2011-08-22, 03:11:04,VALID,916.789,VALID,0,VALID,96.7945,VALID,0,VALID,19.2738,VALID,135,VALID,0.35,
2011-08-22, 03:12:04,VALID,916.795,VALID,0,VALID,96.8098,VALID,0,VALID,19.2738,VALID,135,VALID,0.786328,
2011-08-22, 03:13:04,VALID,916.807,VALID,0,VALID,96.825,VALID,0,VALID,19.2933,VALID,135,VALID,0.0910156,
2011-08-22, 03:14:04,VALID,916.795,VALID,0,VALID,96.886,VALID,0,VALID,19.3323,VALID,135,VALID,0.721484,
2011-08-22, 03:15:04,VALID,916.792,VALID,0,VALID,96.9012,VALID,0,VALID,19.3518,VALID,135,VALID,0.610547,
2011-08-22, 03:16:04,VALID,916.781,VALID,0,VALID,96.8936,VALID,0,VALID,19.3503,VALID,135,VALID,0.346875,
2011-08-22, 03:17:04,VALID,916.787,VALID,0,VALID,96.8784,VALID,0,VALID,19.3713,VALID,135,VALID,0.799219,
2011-08-22, 03:18:04,VALID,916.768,VALID,0,VALID,96.886,VALID,0,VALID,19.3713,VALID,135,VALID,1.25742,
2011-08-22, 03:19:04,VALID,916.749,VALID,0,VALID,96.886,VALID,0,VALID,19.3923,VALID,135,VALID,1.19922,
2011-08-22, 03:20:04,VALID,916.794,VALID,0,VALID,96.9317,VALID,0,VALID,19.3713,VALID,177,VALID,1.2125,
2011-08-22, 03:21:04,VALID,916.763,VALID,0,VALID,96.9394,VALID,0,VALID,19.3908,VALID,177,VALID,1.00977,
2011-08-22, 03:22:04,VALID,916.746,VALID,0,VALID,96.9394,VALID,0,VALID,19.4103,VALID,177,VALID,1.01016,
2011-08-22, 03:23:04,VALID,916.733,VALID,0,VALID,96.9622,VALID,0,VALID,19.4313,VALID,177,VALID,1.07148,
2011-08-22, 03:24:04,VALID,916.731,VALID,0,VALID,96.9775,VALID,0,VALID,19.4493,VALID,150,VALID,0.966797,
2011-08-22, 03:25:04,VALID,916.749,VALID,0,VALID,96.9698,VALID,0,VALID,19.4703,VALID,162,VALID,0.970312,
2011-08-22, 03:26:04,VALID,916.721,VALID,0,VALID,96.9851,VALID,0,VALID,19.4703,VALID,162,VALID,1.11406,
2011-08-22, 03:27:04,VALID,916.706,VALID,0,VALID,96.9851,VALID,0,VALID,19.4883,VALID,162,VALID,0.775,
2011-08-22, 03:28:04,VALID,916.706,VALID,0,VALID,96.9927,VALID,0,VALID,19.4883,VALID,162,VALID,0.853906,
2011-08-22, 03:29:04,VALID,916.719,VALID,0,VALID,96.9317,VALID,0,VALID,19.4493,VALID,118,VALID,1.18047,
2011-08-22, 03:30:04,VALID,916.679,VALID,0,VALID,96.8784,VALID,0,VALID,19.3908,VALID,126,VALID,0.995703,
2011-08-22, 03:31:04,VALID,916.661,VALID,0,VALID,96.9165,VALID,0,VALID,19.3908,VALID,133,VALID,0.601563,
2011-08-22, 03:32:04,VALID,916.664,VALID,0,VALID,96.9394,VALID,0,VALID,19.4103,VALID,139,VALID,0.948047,
2011-08-22, 03:33:04,VALID,916.631,VALID,0,VALID,96.9089,VALID,0,VALID,19.4118,VALID,137,VALID,0.694922,
2011-08-22, 03:34:04,VALID,916.598,VALID,0,VALID,96.886,VALID,0,VALID,19.3713,VALID,137,VALID,0.519141,
2011-08-22, 03:35:04,VALID,916.577,VALID,0,VALID,96.9012,VALID,0,VALID,19.4118,VALID,137,VALID,0.714453,
2011-08-22, 03:36:04,VALID,916.539,VALID,0,VALID,96.9165,VALID,0,VALID,19.4103,VALID,149,VALID,0.740234,
2011-08-22, 03:37:04,VALID,916.517,VALID,0,VALID,96.9241,VALID,0,VALID,19.3908,VALID,130,VALID,0.802344,
2011-08-22, 03:38:04,VALID,916.51,VALID,0,VALID,96.886,VALID,0,VALID,19.4313,VALID,143,VALID,0.825,
2011-08-22, 03:39:04,VALID,916.503,VALID,0,VALID,96.8631,VALID,0,VALID,19.3713,VALID,98,VALID,1.05742,
2011-08-22, 03:40:04,VALID,916.433,VALID,0,VALID,96.8936,VALID,0,VALID,19.3908,VALID,85,VALID,0.883594,
2011-08-22, 03:41:04,VALID,916.441,VALID,0,VALID,96.886,VALID,0,VALID,19.3908,VALID,107,VALID,1.00078,
2011-08-22, 03:42:04,VALID,916.439,VALID,0,VALID,96.8936,VALID,0,VALID,19.4118,VALID,107,VALID,1.10977,
2011-08-22, 03:43:04,VALID,916.421,VALID,0,VALID,96.8631,VALID,0,VALID,19.3908,VALID,119,VALID,1.1582,
2011-08-22, 03:44:04,VALID,916.415,VALID,0,VALID,96.8707,VALID,0,VALID,19.4118,VALID,121,VALID,0.694141,
2011-08-22, 03:45:04,VALID,916.438,VALID,0,VALID,96.8707,VALID,0,VALID,19.3908,VALID,125,VALID,1.39883,